Skip Page Navigation
NASA JPL Caltech
NASA Logo - Jet Propulsion Laboratory + View the NASA Portal
+ Center for Near-Earth Object Studies
JPL Home Earth Solar System Stars & Galaxies Technology
JPL Solar System Dynamics
BODIES ORBITS EPHEMERIDES TOOLS PHYSICAL DATA DISCOVERY FAQ SITE MAP
JPL Small-Body Database Browser
Search: [ help ]  
441251 (2007 VF264)
Classification: Main-belt Asteroid          SPK-ID: 2441251
Ephemeris | Orbit Diagram | Orbital Elements | Mission Design | Physical Parameters | Discovery Circumstances ]

[ show orbit diagram ]
Orbital Elements at Epoch 2459000.5 (2020-May-31.0) TDB
Reference: JPL 14 (heliocentric ecliptic J2000)
 Element Value Uncertainty (1-sigma)   Units 
e .06617361889932137 1.1602e-07  
a 2.603849967955727 3.6885e-08 au
q 2.431543792505214 3.2548e-07 au
i 3.293704363183051 8.5845e-06 deg
node 32.98936512075718 9.7707e-05 deg
peri 338.1581116217439 0.00011163 deg
M 40.02427873788871 4.8098e-05 deg
tp 2458829.874720495101
(2019-Dec-12.37472050)
0.0002055 TDB
period 1534.696003493897
4.20
3.261e-05
8.928e-08
d
yr
n .2345741431400239 4.9844e-09 deg/d
Q 2.776156143406239 3.9326e-08 au
  Orbit Determination Parameters
   # obs. used (total)      121  
   data-arc span      5736 days (15.70 yr)  
   first obs. used      2004-01-19  
   last obs. used      2019-10-03  
   planetary ephem.      DE431  
   SB-pert. ephem.      SB431-N16  
   condition code      0  
   norm. resid. RMS      .6049  
   source      ORB  
   producer      Otto Matic  
   solution date      2019-Nov-08 15:56:32  

Additional Information
 Earth MOID = 1.43156 au 
 Jupiter MOID = 2.52306 au 
 T_jup = 3.408 
[ show covariance matrix ]

Ephemeris | Orbit Diagram | Orbital Elements | Mission Design | Physical Parameters | Discovery Circumstances ]

Physical Parameter Table
Parameter Symbol Value Units Sigma Reference Notes
absolute magnitude H 17.2   n/a MPO495186  

441251 (2007 VF264)          Discovered 2007-Nov-05 by Spacewatch at Kitt Peak
Reference: Last Updated: 2015-09-02
Ephemeris | Orbit Diagram | Orbital Elements | Mission Design | Physical Parameters | Discovery Circumstances ]
ABOUT SSD CREDITS/AWARDS PRIVACY/COPYRIGHT GLOSSARY LINKS
FirstGov 2020-Aug-13 12:22 UT
(server date/time)  
NASA Home Page
Site Manager:   Ryan S. Park
Webmaster  Alan B. Chamberlin